Location: Makakahi
(40.6833°S, 175.6000°E)
Time: 23:47:44
(UTC+00:00)

FENGYUN 1C DEB - Pass Details

Date: 12 December 2024
Orbit: 812 x 877 km, 98.8° (Epoch: 19 January)

Event Time Altitude Azimuth Distance (km) Brightness Sun altitude
Rises 09:07:27 0° 167° (SSE) 3,387 ? -13.2°
Reaches altitude 10° 09:09:48 10° 167° (SSE) 2,454 ? -13.5°
Maximum altitude 09:15:15 88° 255° (WSW) 847 ? -14.2°
Drops below altitude 10° 09:20:43 10° 344° (NNW) 2,463 ? -14.9°
Enters shadow 09:22:30 - 344° (NNW) 3,164 ? -15.1°
